Lid_Strength_Index
2 2 2 2 2 2 3 3 3 3 2 2 2 2 2 2 2 4 5 2 1 -1 1 7 7 7 5 7 6 6 10 11 10 9 9 7 8 6 5 6 5 4 4 3 3
2 2 3 3 2 3 2 3 2 2 2 2 2 2 2 2 4 5 0 -1 -1 -2 6 8 9 8 9 8 8 9 12 11 8 7 8 7 7 7 6 6 6 5 3 2 3
3 3 3 3 3 3 3 2 2 2 2 2 2 2 2 2 5 4 -2 -2 -1 1 4 4 4 8 10 9 9 9 11 8 7 6 6 6 7 6 7 8 6 6 4 3 3
3 3 3 3 3 3 3 3 2 2 2 2 2 2 2 4 10 5 -3 -2 -1 3 4 3 6 11 12 11 9 11 8 7 7 6 6 7 6 7 7 7 4 4 4 3 4
3 3 3 3 3 3 3 3 3 2 2 2 2 2 4 6 5 0 -3 -2 2 3 3 4 7 9 12 10 9 10 9 7 7 7 7 6 7 7 7 6 5 3 3 4 4
3 3 3 3 3 3 3 3 3 2 2 2 2 2 4 9 2 1 1 2 3 3 3 5 7 7 9 9 10 8 8 8 8 8 8 8 8 7 6 6 6 6 4 4 4
3 4 3 3 3 3 3 3 2 2 2 2 2 3 6 7 2 2 3 4 3 3 5 5 5 7 7 9 7 8 10 9 8 8 9 7 9 9 6 5 6 6 5 5 4
4 4 4 3 3 3 3 2 3 2 2 2 2 4 7 2 3 4 3 3 3 3 4 4 4 7 9 8 8 10 11 13 10 7 7 8 11 8 6 6 7 6 6 5 4
4 4 4 4 3 3 3 3 2 1 1 2 4 6 7 2 4 3 3 4 4 4 4 3 6 8 8 11 13 12 14 13 10 7 8 8 10 7 6 6 7 7 6 5 6
4 4 4 4 4 3 3 3 3 2 3 3 4 7 4 4 4 4 4 3 4 5 6 7 9 11 12 13 16 14 13 11 11 9 8 10 10 8 7 7 7 7 6 6 5
4 4 4 4 4 4 4 5 6 6 5 7 6 6 4 3 3 5 3 4 5 7 10 8 12 13 11 10 10 10 10 11 9 8 10 11 10 9 8 8 8 8 7 6 6
5 5 4 4 4 4 6 6 5 6 9 4 4 4 3 3 6 5 3 7 7 10 9 10 12 8 7 7 9 10 11 12 10 8 9 11 11 9 8 8 8 7 7 6 6
6 5 5 4 4 6 6 4 2 5 9 7 5 5 4 6 7 6 5 7 8 10 10 11 9 6 7 9 9 10 11 11 11 9 9 10 11 10 8 7 7 6 6 6 6
6 6 6 5 6 5 5 3 4 4 13 9 7 6 6 6 8 4 5 6 8 10 9 10 7 8 8 9 9 12 8 9 9 11 15 10 15 11 9 8 7 6 6 6 6
6 6 6 6 7 7 5 5 5 5 19 8 8 5 6 8 7 7 5 7 10 10 10 11 10 9 10 9 8 10 8 9 9 12 13 12 15 12 9 10 8 7 7 6 5
6 6 6 6 6 6 4 5 6 12 18 10 8 9 9 8 7 6 7 6 7 10 9 10 7 8 9 8 8 7 9 10 12 14 16 13 13 13 11 10 8 7 6 6 6
6 7 8 6 7 5 5 7 13 17 8 9 10 9 10 10 9 8 9 10 12 14 14 11 10 8 6 9 8 9 12 16 18 18 17 12 13 12 9 7 7 8 7 7 6
8 8 7 7 6 6 6 10 16 11 10 7 8 9 11 9 9 9 10 11 9 9 11 14 15 9 7 9 10 11 12 16 20 20 17 12 16 13 8 6 6 6 7 6 7
8 6 7 6 5 5 9 15 14 10 8 9 10 11 11 10 10 10 10 11 10 9 13 14 14 8 8 7 9 11 13 11 15 15 19 16 12 9 8 7 7 6 6 8 8
10 8 5 3 4 6 11 13 11 8 8 10 13 11 14 12 12 12 12 9 9 8 8 11 14 9 8 8 8 10 9 15 15 21 22 17 15 14 10 9 8 7 7 7 7
9 8 5 3 4 9 14 12 9 7 8 10 12 13 12 13 12 13 12 10 8 9 8 10 12 12 10 11 12 11 13 13 14 16 21 21 17 10 10 9 9 8 7 7 6
11 12 4 4 10 10 12 9 8 9 8 9 10 11 12 11 12 12 12 10 8 8 11 9 12 15 12 8 7 10 12 13 17 19 17 18 17 8 8 8 8 7 7 6 5
12 11 6 6 14 13 11 10 9 10 10 10 11 10 10 12 14 11 11 8 8 9 10 10 13 17 15 12 9 12 11 10 12 14 17 19 17 8 7 8 7 7 6 5 5
11 12 8 8 9 11 12 12 11 9 9 9 10 10 11 12 11 12 11 9 8 9 5 7 12 14 17 14 11 13 11 10 13 17 16 15 14 10 8 9 8 8 7 6 5
10 11 10 13 12 12 11 11 12 12 9 9 11 11 12 14 13 13 12 11 9 7 8 9 14 12 11 10 10 10 10 10 11 13 15 13 12 10 8 7 7 7 6 6 6
11 11 10 12 10 11 11 11 11 11 11 12 12 11 11 14 13 14 13 13 12 10 11 10 14 11 13 10 10 11 10 10 10 10 10 11 12 9 8 7 8 8 7 6 5
8 8 11 11 12 12 12 11 11 11 10 10 11 12 12 12 11 12 12 11 11 12 12 12 14 14 16 11 11 15 11 10 11 10 11 14 12 9 9 9 8 8 7 7 6